Вернуться в каталог

THOR ABLESTAR DEB

АктивенLEO
NORAD 150·DEBRIS·🇺🇸 United States

Запущен Jun 29, 1961 с Cape Canaveral Space Force Station

Loading…

Ближайшие Пролёты (ближайшие 24 часа)

TLE

СвежийSource: Space-Track

Эпоха: Sep 14, 2026, 09:17 UTC

1 00150U 61015AL  26257.38749479  .00000411  00000-0  43431-3 0  9996
2 00150  66.2477  42.8821 0064411 210.1701 149.5655 13.83941872120849

Отслеживайте THOR ABLESTAR DEB в реальном времени с AllMySat

Download on the App Store